Kentucky Observed Data For Previous 48 Hours

Caption
Day and Hour Reservoir Elevation (behind dam)* Tailwater Elevation (below dam)* Average Hourly Discharge*
2/21/2018 1 AM CST 354.48 329.61 244,200
2/21/2018 2 AM CST 354.36 329.64 242,743
2/21/2018 3 AM CST 354.40 329.76 242,146
2/21/2018 4 AM CST 354.26 329.78 241,304
2/21/2018 5 AM CST 354.23 329.81 239,803
2/21/2018 6 AM CST 354.15 329.82 238,788
2/21/2018 7 AM CST 354.11 329.77 235,533
2/21/2018 8 AM CST 354.10 329.85 235,567
2/21/2018 9 AM CST 354.12 329.80 236,066
2/21/2018 10 AM CST 354.15 329.93 235,290
2/21/2018 11 AM CST 354.14 329.92 235,683
2/21/2018 12 PM CST 354.16 329.93 235,713
2/21/2018 1 PM CST 354.16 329.99 235,942
2/21/2018 2 PM CST 354.17 329.97 235,540
2/21/2018 3 PM CST 354.17 330.02 235,863
2/21/2018 4 PM CST 354.14 330.10 235,699
2/21/2018 5 PM CST 354.10 330.08 235,632
2/21/2018 6 PM CST 354.09 330.16 235,960
2/21/2018 7 PM CST 354.12 330.18 234,756
2/21/2018 8 PM CST 354.14 330.18 235,150
2/21/2018 9 PM CST 354.11 330.18 235,562
2/21/2018 10 PM CST 354.13 330.45 237,206
2/21/2018 11 PM CST 354.14 330.36 238,013
2/22/2018 12 AM CST 354.18 330.41 237,764
2/22/2018 1 AM CST 354.16 330.42 234,992
2/22/2018 2 AM CST 354.21 330.59 235,316
2/22/2018 3 AM CST 354.30 330.65 236,509
2/22/2018 4 AM CST 354.37 330.64 237,881
2/22/2018 5 AM CST 354.41 330.76 238,723
2/22/2018 6 AM CST 354.41 330.81 239,955
2/22/2018 7 AM CST 354.41 330.93 240,629
2/22/2018 8 AM CST 354.47 330.94 242,145
2/22/2018 9 AM CST 354.48 331.05 242,925
2/22/2018 10 AM CST 354.54 331.14 243,310
2/22/2018 11 AM CST 354.57 331.20 244,148
2/22/2018 12 PM CST 354.60 331.12 244,952
2/22/2018 1 PM CST 354.62 331.24 245,472
2/22/2018 2 PM CST 354.61 331.32 245,654
2/22/2018 3 PM CST 354.56 331.67 246,738
2/22/2018 4 PM CST 354.62 331.66 257,244
2/22/2018 5 PM CST 354.58 331.73 258,002
2/22/2018 6 PM CST 354.54 331.84 258,955
2/22/2018 7 PM CST 354.54 331.88 260,962
2/22/2018 8 PM CST 354.53 331.93 260,753
2/22/2018 9 PM CST 354.54 331.90 260,847
2/22/2018 10 PM CST 354.54 332.17 260,938
2/22/2018 11 PM CST 354.54 332.22 260,993
2/23/2018 12 AM CST 354.53 332.24 261,245
2/23/2018 1 AM CST 354.58 332.47 261,499
2/23/2018 2 AM CST 354.61 332.57 261,983
2/23/2018 3 AM CST 354.65 332.70 262,373

Elevations are in feet above sea level. Discharges are in cubic feet per second and are reported at the end of the hour.